Effective Sunday, March 17, 2024, the National Weather Service National Data Buoy Center will discontinue its Dial-A-Buoy Interactive Voice Response system. For more information, see Service Change Notice 24-06 (PDF).

Station AAMC1 - 9414750 - Alameda, CA Image indicating link to RSS feed of recent meteorological observations for station AAMC1


Conditions at AAMC1 as of
(4:48 am PST)
1248 GMT on 02/26/2024:
     

Click on the graph icon in the table below to see a time series plot of the last five days of that observation.

5-day plot - Wind Direction Wind Direction (WDIR): S ( 180 deg true )
5-day plot - Wind Speed Wind Speed (WSPD): 2.9 kts
5-day plot - Wind Gust Wind Gust (GST): 5.1 kts
5-day plot - Atmospheric Pressure Atmospheric Pressure (PRES):30.05 in
5-day plot - Air Temperature Air Temperature (ATMP): 54.5 °F
5-day plot - Water Temperature Water Temperature (WTMP): 57.6 °F
5-day plot - Wind Speed at 10 Meters Wind Speed at 10 meters (WSPD10M): 3.9 kts
5-day plot - Wind Speed at 20 Meters Wind Speed at 20 meters (WSPD20M): 3.9 kts
5-day plot -  Wind Speed, Wind Gust and Atmospheric Pressure Combined plot of Wind Speed, Gust, and Air Pressure
NOS Water Level Observation Network Water Level
Previous observations
TIME
(PST)
5-day plot - Wind Direction
WDIR
 
5-day plot - Wind Speed
WSPD
kts
5-day plot - Wind Gust
GST
kts
5-day plot - Wave Height
WVHT
ft
5-day plot - Dominant Wave Period
DPD
sec
5-day plot - Average Wave Period
APD
sec
5-day plot - Mean Wave Direction
MWD
 
5-day plot - Atmospheric Pressure
PRES
in
5-day plot - Pressure Tendency
PTDY
in
5-day plot - Air Temperature
ATMP
°F
5-day plot - Water Temperature
WTMP
°F
5-day plot - Dew Point
DEWP
°F
5-day plot - Salinity
SAL
psu
5-day plot - Visibility
VIS
nmi
5-day plot - Tide (above MLLW)
TIDE
ft
2024-02-26 04:42 amSSE 2.9 5.1----30.05- 54.7 57.6----
2024-02-26 04:36 am SE 2.9 5.1----30.04- 54.7 57.6----
2024-02-26 04:30 am SE 1.9 1.9----30.05- 54.9 57.6----
2024-02-26 04:24 am SE 1.0 1.9----30.05- 54.7 57.6----
2024-02-26 04:18 am- 0.0 1.0----30.05- 54.5 57.6----
2024-02-26 04:12 am- 0.0 1.0----30.05- 54.5 57.6----
2024-02-26 04:06 am- 0.0 1.0----30.05- 54.5 57.7----
2024-02-26 04:00 am- 0.0 1.0----30.05-0.03 54.5 57.7----
2024-02-26 03:54 am- 0.0 0.0----30.05- 54.5 57.7----
2024-02-26 03:48 am- 0.0 1.0----30.05- 54.3 57.7----
2024-02-26 03:42 am W 1.0 1.9----30.05- 54.5 57.7----
2024-02-26 03:36 am W 1.9 2.9----30.05- 54.5 57.7----
2024-02-26 03:30 amWNW 1.9 2.9----30.05- 54.7 57.7----
2024-02-26 03:24 am NW 1.9 4.1----30.05- 54.7 57.7----
2024-02-26 03:18 amWNW 1.9 2.9----30.05- 55.2 57.7----
2024-02-26 03:12 am W 2.9 4.1----30.05- 55.2 57.7----
2024-02-26 03:06 amWNW 1.9 2.9----30.05- 55.4 57.7----
2024-02-26 03:00 am W 1.9 1.9----30.05-0.03 55.4 57.7----
2024-02-26 02:54 am- 0.0 1.0----30.05- 55.4 57.7----
2024-02-26 02:48 am- 0.0 1.0----30.05- 55.2 57.7----
2024-02-26 02:42 am- 0.0 1.0----30.05- 55.2 57.7----
2024-02-26 02:36 am- 0.0 0.0----30.05- 55.2 57.7----
2024-02-26 02:30 am- 0.0 1.0----30.05- 55.2 57.6----
2024-02-26 02:24 am E 1.0 1.9----30.05- 55.2 57.7----
2024-02-26 02:18 am- 0.0 4.1----30.06- 55.4 57.6----
2024-02-26 02:12 am N 1.9 4.1----30.06- 55.6 57.6----
2024-02-26 02:06 amNNW 4.1 5.1----30.06- 55.6 57.7----
2024-02-26 02:00 amNNW 1.9 2.9----30.06-0.03 55.8 57.7----
2024-02-26 01:54 am SW 1.9 2.9----30.06- 55.8 57.7----
2024-02-26 01:48 am SW 1.9 2.9----30.07- 55.8 57.7----
2024-02-26 01:42 am W 1.9 2.9----30.07- 55.8 57.9----
2024-02-26 01:36 amWSW 1.9 2.9----30.07- 55.8 57.9----
2024-02-26 01:30 amWSW 1.9 2.9----30.07- 55.9 57.9----
2024-02-26 01:24 am W 2.9 2.9----30.07- 55.8 57.9----
2024-02-26 01:18 amWSW 1.9 2.9----30.07- 55.8 57.9----
2024-02-26 01:12 amWSW 2.9 2.9----30.07- 55.8 57.9----
2024-02-26 01:06 am W 1.9 4.1----30.07- 55.8 57.9----
2024-02-26 01:00 am W 2.9 4.1----30.08-0.01 55.8 57.9----
2024-02-26 12:54 am W 2.9 6.0----30.08- 55.8 57.9----
2024-02-26 12:48 am W 5.1 6.0----30.08- 55.9 57.9----
2024-02-26 12:42 amWSW 5.1 7.0----30.08- 55.9 57.7----
2024-02-26 12:36 amWSW 4.1 5.1----30.08- 55.9 57.7----
2024-02-26 12:30 am SW 2.9 4.1----30.08- 55.8 57.7----
2024-02-26 12:24 am W 2.9 4.1----30.08- 55.9 57.7----
2024-02-26 12:18 amWSW 2.9 4.1----30.08- 55.8 57.9----
2024-02-26 12:12 am SW 2.9 4.1----30.08- 55.8 57.9----
2024-02-26 12:06 amWSW 2.9 5.1----30.08- 55.8 57.9----
2024-02-26 12:00 amWSW 4.1 5.1----30.08+0.00 55.8 57.9----
2024-02-25 11:54 pmWSW 4.1 4.1----30.08- 55.8 57.9----
2024-02-25 11:48 pmWSW 2.9 5.1----30.08- 55.8 57.9----
2024-02-25 11:42 pmWSW 5.1 6.0----30.08- 55.8 57.9----
2024-02-25 11:36 pmWSW 5.1 6.0----30.09- 55.8 57.9----
2024-02-25 11:30 pm W 1.9 4.1----30.08- 55.8 57.9----
2024-02-25 11:24 pm W 4.1 5.1----30.08- 55.6 57.9----
2024-02-25 11:18 pm W 5.1 6.0----30.08- 55.8 57.9----
2024-02-25 11:12 pm W 5.1 7.0----30.09- 55.8 58.1----
2024-02-25 11:06 pm W 6.0 7.0----30.09- 55.8 58.1----
2024-02-25 11:00 pm W 6.0 8.9----30.09+0.03 55.8 58.1----
2024-02-25 10:54 pm W 6.0 8.0----30.09- 55.6 58.1----
2024-02-25 10:48 pm W 7.0 8.0----30.09- 55.6 58.1----
2024-02-25 10:42 pm W 6.0 8.9----30.09- 55.8 58.1----
2024-02-25 10:36 pm W 7.0 8.9----30.10- 55.8 58.1----
2024-02-25 10:30 pmWSW 6.0 8.9----30.10- 55.8 58.1----
2024-02-25 10:24 pm W 6.0 7.0----30.09- 55.8 58.1----
2024-02-25 10:18 pm W 5.1 6.0----30.09- 55.9 58.1----
2024-02-25 10:12 pm W 4.1 6.0----30.09- 55.8 58.1----
2024-02-25 10:06 pm W 5.1 6.0----30.09- 55.8 58.1----
2024-02-25 10:00 pm W 4.1 5.1----30.09+0.02 55.6 58.1----
2024-02-25 09:54 pm W 4.1 7.0----30.08- 55.8 58.1----
2024-02-25 09:48 pm W 4.1 6.0----30.08- 55.8 58.1----
2024-02-25 09:42 pm W 6.0 8.0----30.09- 55.8 58.3----
2024-02-25 09:36 pm W 5.1 6.0----30.09- 55.8 58.3----
2024-02-25 09:30 pm W 4.1 6.0----30.08- 55.8 58.3----
2024-02-25 09:24 pm W 4.1 6.0----30.08- 55.8 58.3----
2024-02-25 09:18 pm W 4.1 6.0----30.08- 55.9 58.3----
2024-02-25 09:12 pm W 6.0 7.0----30.08- 55.8 58.3----
2024-02-25 09:06 pm W 5.1 6.0----30.07- 55.8 58.3----
2024-02-25 09:00 pm W 4.1 6.0----30.07+0.02 55.8 58.3----
2024-02-25 08:54 pm W 5.1 6.0----30.07- 55.6 58.3----
2024-02-25 08:48 pmWNW 2.9 4.1----30.07- 55.8 58.3----
2024-02-25 08:42 pm W 4.1 5.1----30.06- 55.8 58.3----
2024-02-25 08:36 pmWNW 5.1 6.0----30.06- 55.6 58.3----
2024-02-25 08:30 pm W 4.1 6.0----30.06- 55.8 58.3----
2024-02-25 08:24 pm W 5.1 5.1----30.06- 55.8 58.3----
2024-02-25 08:18 pm W 5.1 6.0----30.06- 55.8 58.3----
2024-02-25 08:12 pm W 5.1 6.0----30.06- 55.6 58.3----
2024-02-25 08:06 pm W 4.1 6.0----30.06- 55.8 58.3----
2024-02-25 08:00 pm W 5.1 8.0----30.06+0.02 55.6 58.3----
2024-02-25 07:54 pmWSW 5.1 8.9----30.06- 55.8 58.3----
2024-02-25 07:48 pmWSW 5.1 6.0----30.06- 55.9 58.3----
2024-02-25 07:42 pmWSW 5.1 7.0----30.06- 55.9 58.3----
2024-02-25 07:36 pm W 5.1 8.9----30.06- 55.9 58.3----
2024-02-25 07:30 pm W 7.0 8.9----30.06- 55.8 58.3----
2024-02-25 07:24 pmWSW 6.0 11.1----30.06- 55.9 58.3----
2024-02-25 07:18 pm W 7.0 9.9----30.06- 56.1 58.3----
2024-02-25 07:12 pmWSW 6.0 8.0----30.06- 55.9 58.3----
2024-02-25 07:06 pm W 6.0 8.0----30.06- 55.9 58.3----
2024-02-25 07:00 pm W 7.0 8.0----30.06- 55.9 58.3----
2024-02-25 06:54 pm W 6.0 8.0----30.06- 55.9 58.3----
2024-02-25 06:48 pm W 6.0 8.0----30.06- 56.1-----
2024-02-25 06:42 pm W 7.0 9.9----30.06- 56.1-----
2024-02-25 06:36 pm W 6.0 8.0----30.06- 56.3-----
2024-02-25 06:30 pm W 6.0 9.9----30.06- 56.3 58.5----
2024-02-25 06:24 pm W 7.0 8.9----30.06- 56.5 58.5----
2024-02-25 06:18 pm W 5.1 7.0----30.06- 56.5 58.5----
2024-02-25 06:12 pm W 5.1 8.0----30.05- 56.5 58.5----
2024-02-25 06:06 pm W 6.0 8.0----30.05- 56.5 58.5----
2024-02-25 06:00 pm W 6.0 8.0----30.05+0.03 56.5 58.3----
2024-02-25 05:54 pmWSW 7.0 9.9----30.05- 56.3 58.3----
2024-02-25 05:48 pm W 8.0 9.9----30.05- 56.5 58.3----
2024-02-25 05:42 pm W 6.0 8.9----30.04- 56.8 58.3----
2024-02-25 05:36 pm W 7.0 8.9----30.04- 57.0 58.3----
2024-02-25 05:30 pm W 6.0 8.9----30.04- 57.0 58.3----
2024-02-25 05:24 pm W 6.0 8.9----30.04- 57.2 58.3----
2024-02-25 05:18 pm W 7.0 11.1----30.04- 57.4 58.3----
2024-02-25 05:12 pm W 8.0 11.1----30.04- 57.7 58.3----
2024-02-25 05:06 pm W 8.0 11.1----30.04- 57.7 58.3----
2024-02-25 05:00 pm W 8.0 12.0----30.04-0.01- 58.3----
2024-02-25 04:54 pm W 7.0 11.1----30.04-- 58.3----
2024-02-25 04:48 pm W 8.0 11.1----30.04- 57.9 58.3----
2024-02-25 04:42 pm W 8.0 13.0----30.04- 58.3 58.1----
2024-02-25 04:36 pm W 8.9 15.0----30.03- 58.3 58.3----
2024-02-25 04:30 pm W 11.1 14.0----30.03- 58.3 58.1----
2024-02-25 04:24 pm W 9.9 13.0----30.03- 58.6 58.1----
2024-02-25 04:18 pm W 8.9 12.0----30.03-- 58.1----
2024-02-25 04:12 pm W 9.9 12.0----30.03-- 58.1----
2024-02-25 04:06 pm W 8.9 11.1----30.03-- 58.1----
2024-02-25 04:00 pm W 8.0 11.1------- 57.9----
2024-02-25 03:54 pm W 8.0 11.1------- 57.9----
2024-02-25 03:48 pm W 9.9 12.0----30.03- 58.6 57.9----
2024-02-25 03:42 pm W 8.9 11.1----30.02- 60.3 57.7----
2024-02-25 03:36 pmWNW 5.1 8.9----30.02- 60.4 57.7----
2024-02-25 03:30 pm NW 5.1 9.9----30.02- 60.3 57.7----
2024-02-25 03:24 pm NW 6.0 8.0----30.02- 60.4 57.7----
2024-02-25 03:18 pm NW 4.1 7.0----30.02- 61.0 57.6----
2024-02-25 03:12 pmNNW 4.1 5.1----30.02- 61.3 57.6----
2024-02-25 03:00 pm N 5.1 7.0----30.02- 61.2 57.6----
2024-02-25 02:54 pm NW 4.1 6.0----30.03- 60.6 57.6----
2024-02-25 02:48 pm NW 5.1 7.0----30.03- 60.6 57.6----
2024-02-25 02:42 pmNNW 5.1 7.0----30.03- 61.0 57.6----
2024-02-25 02:36 pmNNW 2.9 7.0----30.03- 60.8 57.6----
2024-02-25 02:30 pmNNW 2.9 7.0----30.03- 61.0 57.6----
2024-02-25 02:24 pmNNW 5.1 7.0----30.04- 60.6 57.6----
2024-02-25 02:18 pmWNW 5.1 7.0----30.04- 60.3 57.6----
2024-02-25 02:12 pm W 5.1 7.0----30.05- 59.5 57.6----
2024-02-25 02:06 pm W 6.0 8.0----30.05- 60.3 57.6----
2024-02-25 02:00 pm W 6.0 7.0----30.05-0.04 60.3 57.6----
2024-02-25 01:54 pm W 5.1 8.0----30.05- 60.1 57.6----
2024-02-25 01:48 pm W 6.0 8.0----30.05-- 57.6----
2024-02-25 01:42 pm W 7.0 9.9----30.06-- 57.6----
2024-02-25 01:36 pm NW 6.0 8.9----30.05-- 57.6----
2024-02-25 01:30 pm-------30.06-- 57.6----
2024-02-25 01:24 pm-------30.05-- 57.6----
2024-02-25 01:18 pm W 6.0 8.9----30.06- 58.8 57.6----
2024-02-25 01:12 pm NW 6.0 9.9----30.05- 58.6 57.6----
2024-02-25 01:06 pm NW 5.1 8.9----30.05- 59.2 57.6----
2024-02-25 01:00 pm NW 6.0 8.9----30.06-0.04- 57.6----
2024-02-25 12:54 pm NW 5.1 8.0----30.06-- 57.6----
2024-02-25 12:48 pm NW 6.0 9.9----30.06- 59.5 57.6----
2024-02-25 12:42 pm NW 5.1 8.9----30.06- 60.1 57.6----
2024-02-25 12:36 pmWNW 5.1 8.0----30.07- 60.3 57.6----
2024-02-25 12:30 pmWNW 5.1 7.0----30.07- 60.6 57.6----
2024-02-25 12:24 pmWNW 5.1 8.9----30.07- 60.3 57.6----
2024-02-25 12:18 pm NW 5.1 9.9----30.08-- 57.6----
2024-02-25 12:12 pmWNW 6.0 8.9----30.08-- 57.6----
2024-02-25 12:06 pm NW 5.1 8.0----30.08-- 57.6----
2024-02-25 12:00 pmWNW 2.9 4.1------- 57.6----
2024-02-25 11:54 amNNW 2.9 4.1------- 57.6----
2024-02-25 11:48 amWSW 1.0 1.9----30.09- 59.2 57.4----
2024-02-25 11:42 amWSW 1.9 2.9----30.09- 57.9 57.4----
2024-02-25 11:36 amWSW 1.9 1.9----30.09- 57.9 57.4----
2024-02-25 11:30 amSSW 1.9 1.9----30.09- 57.6 57.4----
2024-02-25 11:24 amSSW 1.9 1.9----30.09- 57.6 57.2----
2024-02-25 11:18 amSSW 1.9 1.9----30.09- 57.4 57.2----
2024-02-25 11:12 amSSW 1.9 2.9----30.09- 57.2 57.2----
2024-02-25 11:06 am S 1.9 1.9----30.09- 57.6 57.2----
2024-02-25 11:00 amSSW 1.9 1.9----30.09+0.02 57.6 57.2----
2024-02-25 10:54 am S 1.9 1.9----30.09- 57.6 57.2----
2024-02-25 10:48 am S 1.0 1.9----30.09- 57.0 57.2----
2024-02-25 10:42 amSSW 1.0 1.9----30.09- 56.8 57.0----
2024-02-25 10:36 amSSW 1.9 2.9----30.10- 56.3 57.0----
2024-02-25 10:30 am S 1.9 2.9----30.10-- 57.0----
2024-02-25 10:24 am S 1.9 2.9----30.10-- 57.0----
2024-02-25 10:18 am S 1.9 1.9----30.10- 57.4 57.0----
2024-02-25 10:12 amESE 1.0 1.9----30.09- 57.0 57.0----
2024-02-25 10:06 am E 1.0 2.9----30.09- 56.8 57.0----
2024-02-25 10:00 amSSE 1.0 1.9----30.09+0.04 57.2 57.0----
2024-02-25 09:54 amSSW 1.0 1.9----30.09- 56.5 57.0----
2024-02-25 09:48 am S 1.0 2.9----30.09- 56.5 57.0----
2024-02-25 09:42 am S 2.9 2.9----30.09- 56.3 57.0----
2024-02-25 09:36 am S 2.9 4.1----30.09- 56.3 57.0----
2024-02-25 09:30 am S 4.1 6.0----30.09- 56.1 57.0----
2024-02-25 09:24 am S 5.1 6.0----30.09- 56.1 57.0----
2024-02-25 09:18 amSSE 2.9 6.0----30.09- 56.3 57.0----
2024-02-25 09:12 amSSE 2.9 5.1----30.09- 56.5 57.0----
2024-02-25 09:06 amSSE 2.9 7.0----30.09- 56.5 57.0----
2024-02-25 09:00 am S 2.9 4.1----30.08+0.04 56.5 57.0----
2024-02-25 08:54 amESE 1.9 2.9----30.08- 56.3 57.0----
2024-02-25 08:48 amESE 1.9 2.9----30.08- 56.1 57.0----
2024-02-25 08:42 amESE 1.9 2.9----30.08- 56.1 57.0----
2024-02-25 08:36 amESE 1.9 1.9----30.08- 55.9 57.0----
2024-02-25 08:30 amESE 1.0 1.9----30.08- 55.8 57.0----
2024-02-25 08:24 am E 1.9 1.9----30.08- 55.4 57.0----
2024-02-25 08:18 am E 1.0 1.9----30.07-- 57.0----
2024-02-25 08:12 amESE 1.9 2.9----30.08-- 57.0----
2024-02-25 08:06 amESE 2.9 4.1----30.07-- 57.0----
2024-02-25 08:00 am SE 4.1 4.1----30.07+0.03- 57.0----
2024-02-25 07:54 amESE 2.9 4.1----30.07-- 57.0----
2024-02-25 07:48 am SE 1.9 2.9----30.06- 54.3 57.0----
2024-02-25 07:42 am SE 1.0 1.9----30.06- 54.5 57.2----
2024-02-25 07:36 am E 1.9 1.9----30.06- 53.6 57.2----
2024-02-25 07:30 am E 1.0 1.9------ 53.4 57.2----
2024-02-25 07:24 am E 1.9 2.9------ 53.4 57.2----
2024-02-25 07:18 amESE 1.0 2.9----30.06-- 57.2----
2024-02-25 07:12 am- 0.0 1.9----30.05-- 57.2----
2024-02-25 07:06 am- 0.0 1.9----30.05-- 57.2----
2024-02-25 07:00 amNNE 1.0 2.9----30.05+0.02- 57.2----
2024-02-25 06:54 am N 1.0 2.9----30.05-- 57.2----
2024-02-25 06:48 am-------30.05- 53.4 57.2----
2024-02-25 06:42 am-------30.05- 53.6 57.2----
2024-02-25 06:36 am-------30.05- 54.3 57.2----
2024-02-25 06:30 am NW 1.0 1.9------ 54.3 57.2----
2024-02-25 06:24 amNNW 1.0 1.9------ 54.0 57.2----
2024-02-25 06:18 am NW 1.9 1.9----30.05-- 57.2----
2024-02-25 06:12 amNNW 1.0 2.9----30.05-- 57.2----
2024-02-25 06:06 amNNW 1.9 2.9----30.05-- 57.2----
2024-02-25 06:00 amNNW 1.9 2.9----30.05-- 57.2----
2024-02-25 05:54 amNNW 1.9 2.9----30.05-- 57.2----
2024-02-25 05:48 am W 1.0 1.9----30.05- 54.1-----
2024-02-25 05:42 am NW 1.9 1.9----30.05- 54.0-----
2024-02-25 05:36 am- 0.0 1.9----30.04- 53.4-----
2024-02-25 05:30 amNNE 1.0 1.9----30.04- 53.6 57.2----
2024-02-25 05:24 amNNE 1.9 1.9----30.04- 53.6 57.2----
2024-02-25 05:18 am- 0.0 1.9----30.04- 54.0 57.2----
2024-02-25 05:12 am- 0.0 1.0----30.04- 54.1 57.2----
2024-02-25 05:06 am- 0.0 1.9----30.04- 54.3 57.2----
2024-02-25 05:00 am- 0.0 2.9----30.04+0.00- 57.2----
2024-02-25 04:54 am N 1.9 1.9----30.04-- 57.2----